Triuchirapalli, India

4:39 AM IST on September 17, 2019 (GMT +0530)
Tiruchirappalli

Weather History for VOTR - July, 2019

Change the Weather History Date:

Thursday, July 25, 2019

  Actual Average Record
Temperature  
Mean Temperature 90 °F -  
Max Temperature 102 °F 92 °F 105 °F (2017)
Min Temperature 77 °F 79 °F 74 °F (2016)
Cooling Degree Days 24    
Growing Degree Days 40 (Base 50)    
Moisture  
Dew Point 75 °F    
Average Humidity 70    
Maximum Humidity 100    
Minimum Humidity 37    
Precipitation  
Precipitation 0.35 in - - ()
Sea Level Pressure  
Sea Level Pressure 29.73 in    
Wind  
Wind Speed 8 mph ()    
Max Wind Speed 17 mph    
Max Gust Speed 23 mph    
Visibility 3.8 miles    
Events Rain    
Averages and records for this station are not official NWS values.
T = Trace of Precipitation, MM = Missing Value Source: Averaged Metar Reports

Daily Weather History Graph

Daily Weather History Graph

Search for Another Location

Airport or City:

Astronomy

Jul. 25, 2019 Rise Set
Actual Time 6:02 AM IST 6:40 PM IST
Civil Twilight 5:39 AM IST 7:03 PM IST
Nautical Twilight 5:13 AM IST 7:29 PM IST
Astronomical Twilight 4:46 AM IST 7:56 PM IST
Moon No Moon Rise 12:26 PM IST (7/25)
Length of Visible Light 13h 23m
Length of Day
12h 38m
Waning Gibbous, 48% of the Moon is Illuminated
Jul 25
Waning Gibbous
Aug 1
New
Aug 7
First Quarter
Aug 15
Full
Aug 23
Last Quarter

Hourly Weather History & Observations

Time (IST) Temp. Heat Index Dew Point Humidity Pressure Visibility Wind Dir Wind Speed Gust Speed Precip Events Conditions
12:00 AM 86.0 °F 95.1 °F 75.2 °F 70% 29.77 in 3.7 mi West 9.2 mph - N/A   Scattered Clouds
12:30 AM 86.0 °F 95.1 °F 75.2 °F 70% 29.74 in 3.7 mi West 5.8 mph - N/A   Scattered Clouds
1:00 AM 86.0 °F 95.1 °F 75.2 °F 70% 29.74 in 3.7 mi West 9.2 mph - N/A   Scattered Clouds
1:30 AM 84.2 °F 92.3 °F 75.2 °F 74% 29.74 in 3.7 mi West 6.9 mph - N/A   Scattered Clouds
2:00 AM 84.2 °F 92.3 °F 75.2 °F 74% 29.74 in 3.7 mi West 5.8 mph - N/A   Scattered Clouds
2:30 AM 85 °F - 73 °F 61% 29.73 in 2 mi WSW 6.9 mph - -   Haze
2:30 AM 84.2 °F 90.9 °F 73.4 °F 70% 29.74 in 3.7 mi WSW 6.9 mph - N/A   Scattered Clouds
3:00 AM 84.2 °F 90.9 °F 73.4 °F 70% 29.74 in 3.7 mi West 9.2 mph - N/A   Scattered Clouds
3:30 AM 84.2 °F 90.9 °F 73.4 °F 70% 29.74 in 3.7 mi West 10.4 mph - N/A   Scattered Clouds
4:00 AM 84.2 °F 90.9 °F 73.4 °F 70% 29.74 in 3.7 mi West 6.9 mph - N/A   Scattered Clouds
4:30 AM 84.2 °F 90.9 °F 73.4 °F 70% 29.74 in 3.7 mi West 5.8 mph - N/A   Scattered Clouds
5:30 AM 83 °F - 74 °F 66% 29.73 in 2 mi WNW 6.9 mph - -   Haze
5:30 AM 82.4 °F 88.2 °F 73.4 °F 74% 29.74 in 3.7 mi WNW 6.9 mph - N/A   Scattered Clouds
6:00 AM 82.4 °F 88.2 °F 73.4 °F 74% 29.74 in 3.7 mi West 4.6 mph - N/A   Scattered Clouds
6:30 AM 84.2 °F 90.9 °F 73.4 °F 70% 29.74 in 3.7 mi West 4.6 mph - N/A   Scattered Clouds
7:00 AM 84.2 °F 89.6 °F 71.6 °F 66% 29.74 in 3.7 mi West 5.8 mph - N/A   Scattered Clouds
7:30 AM 86.0 °F 93.4 °F 73.4 °F 66% 29.77 in 3.7 mi West 13.8 mph - N/A   Scattered Clouds
8:00 AM 86.0 °F 91.8 °F 71.6 °F 62% 29.77 in 3.7 mi WNW 11.5 mph - N/A   Scattered Clouds
8:30 AM 87 °F - 73 °F 56% 29.77 in 2 mi West 11.5 mph - -   Haze
8:30 AM 87.8 °F 95.6 °F 73.4 °F 62% 29.77 in 3.7 mi West 11.5 mph - N/A   Partly Cloudy
9:00 AM 89.6 °F 98.2 °F 73.4 °F 59% 29.77 in 5.0 mi West 16.1 mph - N/A   Partly Cloudy
9:30 AM 89.6 °F 98.2 °F 73.4 °F 59% 29.77 in 6.2 mi West 11.5 mph 23.0 mph N/A   Partly Cloudy
10:00 AM 91.4 °F 100.1 °F 73.4 °F 55% 29.77 in 6.2 mi West 11.5 mph 23.0 mph N/A   Partly Cloudy
10:30 AM 93.2 °F 100.5 °F 71.6 °F 49% 29.77 in 6.2 mi West 9.2 mph 20.7 mph N/A   Partly Cloudy
11:00 AM 95.0 °F 103.2 °F 71.6 °F 47% 29.77 in 6.2 mi West 10.4 mph 21.9 mph N/A   Partly Cloudy
11:30 AM 96 °F - 72 °F 37% 29.75 in 6 mi West 11.5 mph - -   Partly Cloudy
11:30 AM 96.8 °F 105.1 °F 71.6 °F 44% 29.77 in 6.2 mi West 11.5 mph 23.0 mph N/A   Partly Cloudy
12:30 PM 98.6 °F 107.7 °F 71.6 °F 42% 29.74 in 6.2 mi West 11.5 mph 23.0 mph N/A   Partly Cloudy
1:30 PM 100.4 °F 109.3 °F 71.6 °F 39% 29.71 in 6.2 mi West 9.2 mph 20.7 mph N/A   Partly Cloudy
2:30 PM 83 °F - 71 °F 60% 29.68 in 6 mi West 16.1 mph - -   Partly Cloudy
2:30 PM 102.2 °F 111.7 °F 71.6 °F 37% 29.68 in 6.2 mi West 9.2 mph 20.7 mph N/A   Partly Cloudy
3:00 PM 102.2 °F 111.7 °F 71.6 °F 37% 29.65 in 5.0 mi SSW 9.2 mph 20.7 mph N/A   Partly Cloudy
3:30 PM 96.8 °F 105.1 °F 71.6 °F 44% 29.65 in 3.7 mi South 9.2 mph 20.7 mph N/A   Partly Cloudy
4:00 PM 93.2 °F 102.4 °F 73.4 °F 52% 29.65 in 3.1 mi South 9.2 mph 20.7 mph N/A   Drizzle
4:30 PM 89.6 °F 99.8 °F 75.2 °F 62% 29.65 in 3.1 mi South 6.9 mph - N/A   Light Drizzle
5:00 PM 86.0 °F 95.1 °F 75.2 °F 70% 29.65 in 3.1 mi SW 9.2 mph - N/A   Light Drizzle
5:30 PM 85 °F - 75 °F 65% 29.66 in 2 mi WNW 17.3 mph - - Rain Light Rain
5:30 PM 84.2 °F 98.3 °F 80.6 °F 89% 29.65 in 2.5 mi WNW 9.2 mph 20.7 mph N/A Rain Light Rain
6:00 PM 82.4 °F 94.0 °F 80.6 °F 94% 29.68 in 1.9 mi West 9.2 mph 20.7 mph N/A Rain Rain
6:30 PM 82.4 °F 94.0 °F 80.6 °F 94% 29.68 in 1.9 mi SE 9.2 mph 20.7 mph N/A   Drizzle
7:00 PM 82.4 °F 94.0 °F 80.6 °F 94% 29.71 in 2.5 mi South 9.2 mph 20.7 mph N/A   Light Drizzle
7:30 PM 82.4 °F 94.0 °F 80.6 °F 94% 29.71 in 2.5 mi SSE 10.4 mph - N/A   Light Drizzle
8:00 PM 82.4 °F 94.0 °F 80.6 °F 94% 29.71 in 2.5 mi South 9.2 mph - N/A   Light Drizzle
8:30 PM 79 °F - 77 °F 92% 29.75 in 2 mi SSE 9.2 mph - - Rain Light Drizzle
8:30 PM 78.8 °F - 77.0 °F 94% 29.74 in 3.1 mi SSE 9.2 mph - N/A   Light Drizzle
9:00 PM 77.0 °F - 77.0 °F 100% 29.77 in 3.1 mi South 6.9 mph - N/A   Light Drizzle
9:30 PM 77.0 °F - 75.2 °F 94% 29.80 in 3.1 mi South 5.8 mph - N/A   Light Drizzle
10:00 PM 77.0 °F - 75.2 °F 94% 29.80 in 3.1 mi Calm Calm - N/A   Light Drizzle
10:30 PM 77.0 °F - 75.2 °F 94% 29.80 in 3.1 mi WNW 5.8 mph - N/A   Light Drizzle
11:00 PM 77.0 °F - 75.2 °F 94% 29.77 in 3.1 mi SSW 5.8 mph - N/A   Light Drizzle
11:30 PM 78 °F - 77 °F 94% 29.76 in 2 mi SW 5.8 mph - - Rain Light Drizzle
11:30 PM 77.0 °F - 77.0 °F 100% 29.77 in 3.1 mi SW 5.8 mph - N/A   Light Drizzle